Regional Weather Roundup
Issued by NWS Grand Forks, ND

Home | Current Version | Previous Version | Graphics & Text | Print | Product List | Glossary On
Versions: 1 2 3 4 5 6 7 8 9 10 11 12 13 14 15 16 17 18 19 20 21 22 23 24 25 26 27 28 29 30 31 32 33 34 35 36 37 38 39 40 41 42 43 44 45 46 47 48 49 50
900
ASUS43 KFGF 080810
RWRFGF
PRAIRIE TO PINES  WEATHER ROUNDUP
NATIONAL WEATHER SERVICE EASTERN NORTH DAKOTA/GRAND FORKS ND
200 AM CST THU DEC 08 2016

 **SATELLITE DATA USED TO AUGMENT SKY COVER AT AUTOMATED STATIONS**
 *****  WEATHER ACROSS EASTERN NORTH DAKOTA  *****

CITY           SKY/WX    TMP DP  RH WIND       PRES   REMARKS
GRAND FORKS    LGT SNOW  18  13  80 NW25      30.32R WCI   0
GRAND FRKS AFB FLURRIES  15  10  81 N22       30.33R WCI  -3
DEVILS LAKE    NOT AVBL
FARGO          LGT SNOW  17  11  77 NW25G33   30.30R WCI  -1
WAHPETON ARPT  CLOUDY    14   9  79 NW20G26   30.30R WCI  -3
$$

 ***** WEATHER ACROSS CENTRAL AND WESTERN NORTH DAKOTA  *****

CITY           SKY/WX    TMP DP  RH WIND       PRES   REMARKS
BISMARCK       MIX PCPN   4  -1  80 NW21G28   30.51S WCI -17
MINOT          FLURRIES   5   0  79 W26       30.49R WCI -18
JAMESTOWN      CLOUDY     7   3  84 NW29G35   30.38R BLWGSNOWWCI -16
MINOT AFB      PTCLDY     4   0  81 NW26      30.48R WCI -19
GARRISON         N/A      3  -2  79 NW23      30.49R WCI -19
WILLISTON      CLOUDY    -1  -9  68 W12       30.61S WCI -18
DICKINSON      CLEAR     -5 -10  79 NW16      30.49R WCI -27
HETTINGER      CLEAR     -2  -8  76 NW17      30.52R WCI -23
$$

 *****  OTHER AIRPORT OBSERVATIONS IN OUR AREA  *****

CITY           SKY/WX    TMP DP  RH WIND       PRES   REMARKS
WALHALLA         N/A     16  16 100 NW21G28   30.36R WCI  -2
GRAFTON AIRPOR CLOUDY    18  14  86 NW18G29   30.35R WCI   2
VALLEY CITY AR FLURRIES   7   7 100 NW23G31   30.36R WCI -14
CANDO          CLOUDY    10   7  85 NW21G30   30.42R WCI  -9
CAVALIER APRT  LGT SNOW  16  12  86 NW22G32   30.34R WCI  -2
GWINNER        CLOUDY    14  10  85 NW23      30.35R WCI  -5
SHEYENNE NWR     N/A     13   5  71 NW16      29.95S WCI  -3
ROLLA          CLOUDY     7   5  92 NW26      30.38R FOG     WCI -16
 ***** THE ABOVE OBSERVATIONS ARE NON NWS ARE NOT QUALITY
       CONTROLLED AND MAY MIS-REPORT RAIN FOR SNOW...
$$

  *****  WEATHER ACROSS NORTHERN MINNESOTA  *****

CITY           SKY/WX    TMP DP  RH WIND       PRES   REMARKS
FLAG ISLAND    CLOUDY    21  18  86 N22       30.16R WCI   5
WARROAD        LGT SNOW  19  16  86 NW13G18   30.19R WCI   7
ROSEAU         FLURRIES  21  16  79 NW14      30.21R WCI   8
HALLOCK        CLOUDY    19  16  86 NW23      30.29R WCI   2
THF RVR FALLS  FLURRIES  17  15  92 NW22      30.24R WCI   0
BAUDETTE       LGT SNOW  21  15  78 N14G23    30.12R WCI   8
WASKISH        FLURRIES  19  18  93 NW9       30.13R WCI   9
CROOKSTON      LGT SNOW  18  16  93 N25G31    30.28R WCI  -1
$$
  *****  WEATHER ACROSS CENTRAL AND WEST MINNESOTA  *****

CITY           SKY/WX    TMP DP  RH WIND       PRES   REMARKS
FOSSTON        LGT SNOW  16  14  93 NW12G18   30.20R WCI   3
BEMIDJI        LGT SNOW  17  14  89 NW15      30.14R WCI   2
PARK RAPIDS    FLURRIES  18  11  74 NW15G22   30.13R WCI   4
ELBOW LAKE     LGT SNOW  14  12  92 NW23G29   30.25R WCI  -5
WADENA         MIX PCPN  18  14  86 NW16      30.15R WCI   3
DETROIT LAKES  LGT SNOW  19  18  93 NW18G25   30.21R WCI   4
MOORHEAD       MIX PCPN  16  12  86 NW28      30.29R WCI  -4
FERGUS FALLS   CLOUDY    16  12  86 NW23      30.29R FOG     WCI  -2
MORRIS MN      LGT SNOW  12  10  92 NW26G32   30.25R WCI  -8
STAPLES        CLOUDY    16  12  86 NW12      30.14R WCI   3
$$
  *****  WEATHER ELSEWHERE ACROSS MINNESOTA  *****

CITY           SKY/WX    TMP DP  RH WIND       PRES   REMARKS
DULUTH         LGT SNOW  22  18  85 NW12      29.97R FOG     WCI  10
INTRNTL FALLS  LGT SNOW  19  15  84 NW9       30.07R FOG     WCI   8
ELY            CLOUDY    19  18  93 NW14G21   29.96R WCI   6
CLOQUET        LGT SNOW  21  18  86 W8        30.00R WCI  12
WHEATON        FLURRIES  16  10  79 NW22G31   30.33R WCI  -2
BRAINERD       CLOUDY    20  15  81 NW14      30.11R WCI   7
HIBBING        MIX PCPN  19  15  84 NW16      30.01R WCI   4
ALEXANDRIA     CLOUDY    13  10  88 NW18      30.19R FOG     WCI  -4
SAINT CLOUD    CLOUDY    16  12  84 W14       30.15R WCI   2
MINNEAPOLIS    FLURRIES  16  10  77 W14       30.16R WCI   2
$$

  *****  WEATHER ACROSS SOUTH DAKOTA  *****

CITY           SKY/WX    TMP DP  RH WIND       PRES   REMARKS
SIOUX FALLS    CLOUDY     8   3  80 NW23G31   30.39R WCI -13
BROOKINGS      FLURRIES   7   2  80 NW21G29   30.33R WCI -13
WATERTOWN      CLOUDY     8   4  83 NW21G29   30.32R FOG     WCI -12
HURON          FLURRIES   7   2  80 NW25G32   30.46R WCI -15
SISSETON         N/A     14   8  77 NW26G39   30.31R WCI  -6
ABERDEEN       LGT SNOW  10   4  76 NW23G30   30.43R WCI -10
MITCHELL       CLEAR      8   1  73 NW18      30.50R WCI -11
PIERRE         MOCLDY     8   0  69 NW25      30.52R WCI -13
MOBRIDGE       CLOUDY     6  -3  66 NW18G32   30.48R WCI -13
RAPID CITY     CLEAR      2  -6  69 N15       30.50R WCI -17
$$

  *****  SOME WEATHER IN NEARBY STATES *****

CITY           SKY/WX    TMP DP  RH WIND       PRES   REMARKS
GLASGOW MT     PTCLDY    -5 -10  79 NW8       30.63F WCI -20
GREAT FALLS MT CLOUDY     0  -7  72 NE7       30.50F WCI -13
CHEYENNE WY    CLOUDY   -13 -18  78 CALM      30.30F
SCOTTSBLUFF NE CLOUDY    -6 -12  75 NW5       30.49S WCI -17
OMAHA NE       PTCLDY    14   4  64 NW14      30.49R WCI  -1
DES MOINES IA  FLURRIES  17   8  67 NW23G31   30.37R WCI  -1
DAVENPORT IA   CLOUDY    19  11  70 W23G30    30.26R WCI   2
CHICAGO IL     FLURRIES  23  14  68 W21G32    30.14S WCI   8
EAU CLAIRE WI  LGT SNOW  15  11  83 W12       30.09R FOG     WCI   2
LA CROSSE WI   CLOUDY    18   8  65 W16G23    30.17R WCI   3
$$

  *****  SOME NATIONAL WEATHER *****

CITY           SKY/WX    TMP DP  RH WIND       PRES   REMARKS
LA GUARDIA NY  CLOUDY    44  30  57 W8        30.00R
RALEIGH NC     CLOUDY    50  44  80 S3        30.03F
ATLANTA GA     CLOUDY    44  40  85 W10       30.11S
NEW ORLEANS LA CLOUDY    57  56  96 E9        30.13F
OKLAHOMA CITY  CLOUDY    25  19  78 N16       30.56R WCI  12
ALBUQUERQUE NM CLOUDY    29  13  51 E18       30.24R WCI  16
SALT LAKE CITY MOCLDY    21   9  59 SE6       30.30F WCI  13
LOS ANGELES CA CLEAR     55  50  83 CALM      30.17R
BOISE ID       PTCLDY    18   9  68 S12       30.34F WCI   5
SEATTLE WA     PTCLDY    32  13  45 E15G24    30.26S WCI  22
$$

*** WEATHER ACROSS MANITOBA...SASKATCHEWAN AND ONTARIO ***
                ***ONTARIO***

CITY           SKY/WX    TMP DP  RH WIND       PRES   REMARKS
GERALDTON      LGT SNOW  19  16  86 N12G17    29.77R DRFTSNOWWCI   7
THUNDER BAY    FLURRIES  25  19  80 NW9       29.88R WCI  15
SIOUX LOOKOUT  LGT SNOW  19  16  86 N10G21    30.02R DRFTSNOWWCI   8
TORONTO        PTCLDY    30  25  80 SW8       29.89F WCI  23
BIG TROUT LK   LGT SNOW   9   5  85 N13G20    30.08R WCI  -7
PICKLE LAKE    NOT AVBL
DRYDEN         FLURRIES  18  16  93 N8        30.04R WCI   7
KENORA         LGT SNOW  18  14  86 NW12      30.13R WCI   5
$$
                *** MANITOBA***

CITY           SKY/WX    TMP DP  RH WIND       PRES   REMARKS
BRANDON        CLOUDY    10   5  79 NW22      30.43R WCI  -9
DAUPHIN        FLURRIES  10   5  79 NW10      30.50R WCI  -3
ISLAND LAKE    NOT AVBL
PILOT MOUND      N/A      9   7  92 NW20        N/A  WCI -11
THE PAS        CLOUDY     3  -4  72 NW18G25   30.56S WCI -17
THOMPSON       FLURRIES  -8 -13  77 N13       30.52R WCI -28
WINNIPEG       FLURRIES  16  12  86 NW22G29   30.33R WCI  -2
LYNN LAKE      CLOUDY   -15 -18  84 N8        30.61R WCI -32
CHURCHILL      SNOW       0  -2  92 NW25G33   30.48R VSB 3/8 WCI -25
GILLAM         FLURRIES  -2  -8  78 N18G28    30.43R WCI -24
$$
                ***SASKATCHEWAN***

CITY           SKY/WX    TMP DP  RH WIND       PRES   REMARKS
ESTEVAN        PTCLDY    -6  -9  84 W13       30.54R WCI -25
KINDERSLEY     CLOUDY   -11 -17  77 W2        30.63S
LLOYDMINSTER   CLEAR    -11 -15  84 NW7       30.66R WCI -26
PRINCE ALBERT  FLURRIES  -2  -9  71 NW10      30.65R WCI -19
REGINA         MOCLDY    -2  -8  78 NW15      30.58S WCI -22
YORKTON        FLURRIES   5   0  78 NW15G21   30.52R WCI -13
N. BATTLEFORD  FLURRIES  -6 -11  77 NW12      30.68S WCI -24
LA RONGE       FLURRIES  -9 -15  77 NW7       30.69S WCI -24
SASKATOON      CRYSTALS  -6  -9  84 NW6       30.67R WCI -18
SWIFT CURRENT  CLOUDY    -9 -13  84 W12       30.56S WCI -29
$$
NOTE: THESE ARE AUTOMATED STATIONS WITH LIMITED QUALITY CONTROL
      "FAIR" INDICATES FEW OR NO CLOUDS BELOW 12,000 FEET WITH NO
      SIGNIFICANT WEATHER AND/OR OBSTRUCTIONS TO VISIBILITY.
      SKY/WX - SKY CONDITION AND SIGNIFICANT WEATHER.
      TMP - AIR TEMPERATURE.    DP   - DEWPOINT TEMPERATURE.
      RH  - RELATIVE HUMIDITY.  PRES - PRESSURE.
      HX  - HEAT INDEX.         WCI  - WIND CHILL INDEX.
$




USA.gov is the U.S. government's official web portal to all federal, state and local government web resources and services.